FW1436 Weather Reports


Display with metric or nautical units.
time (UTC)temp
F
wind
direction
speed
MPH
gust
MPH
rain 1hr
in
rain 24hr
in
rain mn
in
humidity
%
barometer
mb
20260509193058 55 171 0.0 0.0 0.00 0.00 0.00 88 1007.1
20260509191600 55 171 0.0 2.0 0.00 0.00 0.00 87 1006.9
20260509190104 56 142 1.0 5.0 0.00 0.00 0.00 87 1006.5
20260509184558 56 98 1.0 5.0 0.00 0.00 0.00 87 1006.4
20260509183057 57 125 1.0 3.0 0.00 0.00 0.00 84 1006.7
20260509181608 59 125 0.0 4.0 0.00 0.00 0.00 80 1006.8
20260509180055 60 133 1.0 4.0 0.00 0.00 0.00 77 1006.7
20260509174555 60 148 1.0 9.0 0.00 0.00 0.00 77 1006.7
20260509173106 59 219 1.0 7.0 0.00 0.00 0.00 80 1006.7
20260509171606 58 150 2.0 9.0 0.00 0.00 0.00 82 1006.7
20260509170053 60 177 3.0 7.0 0.00 0.00 0.00 77 1006.7
20260509164551 60 134 0.0 3.0 0.00 0.00 0.00 77 1006.2
20260509163058 61 137 0.0 5.0 0.00 0.00 0.00 76 1006.6
20260509161550 61 153 1.0 5.0 0.00 0.00 0.00 77 1006.4
20260509160051 62 295 2.0 6.0 0.00 0.00 0.00 76 1006.5
20260509154545 59 84 1.0 4.0 0.00 0.00 0.00 87 1006.6
20260509153044 57 139 0.0 3.0 0.00 0.00 0.00 92 1006.8
20260509151544 55 138 0.0 3.0 0.00 0.00 0.00 90 1007.2
20260509150041 56 167 0.0 2.0 0.00 0.00 0.00 89 1007.2
20260509144540 56 114 0.0 7.0 0.00 0.00 0.00 88 1007.2
20260509143039 56 43 2.0 7.0 0.00 0.00 0.00 89 1007.0
20260509141537 56 128 2.0 6.0 0.00 0.00 0.00 88 1007.2
20260509140038 56 64 0.0 4.0 0.00 0.00 0.00 93 1007.6
20260509134548 56 183 1.0 5.0 0.00 0.00 0.00 95 1007.6
20260509133134 55 150 0.0 4.0 0.00 0.00 0.00 95 1008.0
20260509131535 53 315 0.0 1.0 0.00 0.00 0.00 95 1008.4
20260509130033 53 305 0.0 4.0 0.00 0.00 0.00 94 1008.2
20260509124532 53 265 2.0 6.0 0.00 0.00 0.00 94 1007.9
20260509123032 53 310 1.0 3.0 0.00 0.00 0.00 94 1007.6
20260509121537 53 314 3.0 7.0 0.00 0.00 0.00 93 1008.1
20260509120034 53 292 2.0 6.0 0.00 0.00 0.00 93 1007.9
20260509114531 53 323 1.0 5.0 0.00 0.00 0.00 93 1007.8
20260509113028 53 286 2.0 8.0 0.00 0.00 0.00 92 1007.9
20260509111527 53 207 2.0 7.0 0.00 0.00 0.00 91 1008.1
20260509110028 53 214 1.0 7.0 0.00 0.00 0.00 90 1008.1
20260509104526 55 225 2.0 6.0 0.00 0.00 0.00 89 1008.0
20260509103025 58 203 4.0 14.0 0.00 0.00 0.00 78 1007.9
20260509101525 60 241 2.0 11.0 0.00 0.00 0.00 73 1007.5
20260509100023 59 180 5.0 11.0 0.00 0.00 0.00 75 1007.5
20260509094519 58 69 1.0 7.0 0.00 0.00 0.00 77 1007.5
20260509093015 57 195 2.0 7.0 0.00 0.00 0.00 78 1007.8
20260509091525 57 171 2.0 7.0 0.00 0.00 0.00 78 1007.9
20260509090013 57 180 1.0 4.0 0.00 0.00 0.00 80 1007.9
20260509084519 57 130 1.0 10.0 0.00 0.00 0.00 80 1007.9
20260509083010 56 117 1.0 7.0 0.00 0.00 0.00 82 1007.6
20260509081509 56 146 2.0 6.0 0.00 0.00 0.00 83 1008.0
20260509080004 55 115 1.0 6.0 0.00 0.00 0.00 84 1007.8
20260509074503 54 82 0.0 3.0 0.00 0.00 0.00 86 1007.9
20260509073216 54 134 1.0 4.0 0.00 0.00 0.00 87 1007.8
20260509071558 53 108 1.0 2.0 0.00 0.00 0.00 89 1008.0
20260509070056 53 265 0.0 0.0 0.00 0.00 0.00 90 1008.2
20260509064554 52 266 0.0 0.0 0.00 0.00 0.00 90 1008.4
20260509063053 52 266 0.0 2.0 0.00 0.00 0.00 89 1008.2
20260509061556 52 147 0.0 5.0 0.00 0.00 0.00 89 1008.0
20260509060053 51 149 1.0 3.0 0.00 0.00 0.00 91 1007.9
20260509054559 51 45 0.0 0.0 0.00 0.00 0.00 91 1008.4
20260509053052 50 45 0.0 0.0 0.00 0.00 0.00 91 1008.2
20260509051558 50 51 0.0 0.0 0.00 0.00 0.00 92 1008.0
20260509050050 50 51 0.0 1.0 0.00 0.00 0.00 91 1007.6
20260509044549 50 20 0.0 0.0 0.00 0.00 0.00 91 1007.2
20260509043054 50 94 0.0 1.0 0.00 0.00 0.00 92 1007.4
20260509041551 50 352 0.0 2.0 0.00 0.00 0.00 91 1007.3
20260509040052 50 49 0.0 2.0 0.00 0.00 0.00 91 1007.1
20260509034542 51 90 0.0 0.0 0.00 0.00 0.00 89 1007.5
20260509033040 51 92 0.0 0.0 0.00 0.00 0.00 89 1007.8
20260509031539 51 92 0.0 0.0 0.00 0.00 0.00 88 1008.1
20260509030041 52 92 0.0 0.0 0.00 0.00 0.00 88 1008.1
20260509024538 52 92 0.0 1.0 0.00 0.00 0.00 88 1008.0
20260509023036 52 91 0.0 5.0 0.00 0.00 0.00 88 1008.1
20260509021536 51 89 0.0 0.0 0.00 0.00 0.00 88 1008.2
20260509020035 51 74 0.0 2.0 0.00 0.00 0.00 88 1008.3
20260509014535 51 71 0.0 1.0 0.00 0.00 0.00 88 1008.2
20260509013045 51 54 0.0 0.0 0.00 0.00 0.00 87 1008.1
20260509011532 51 51 0.0 0.0 0.00 0.00 0.00 86 1008.3
20260509010031 51 53 0.0 0.0 0.00 0.00 0.00 86 1008.5
20260509004552 51 105 0.0 0.0 0.00 0.00 0.00 85 1008.6
20260509003036 52 126 0.0 2.0 0.00 0.00 0.00 84 1008.7
20260509001527 52 78 0.0 0.0 0.00 0.00 0.00 84 1008.8
20260509000025 52 138 1.0 3.0 0.00 0.00 0.00 83 1008.9
20260508234524 52 82 0.0 3.0 0.00 0.00 0.00 82 1008.9
20260508233023 52 99 0.0 1.0 0.00 0.00 0.00 83 1008.8
20260508231523 52 91 0.0 3.0 0.00 0.00 0.00 82 1009.0
20260508230036 52 46 0.0 1.0 0.00 0.00 0.00 82 1008.9
20260508224519 52 77 0.0 0.0 0.00 0.00 0.00 82 1008.9
20260508223021 52 77 0.0 0.0 0.00 0.00 0.00 82 1009.1
20260508221516 52 77 0.0 0.0 0.00 0.00 0.00 82 1009.1
20260508220016 52 51 0.0 0.0 0.00 0.00 0.00 82 1009.2
20260508214513 51 10 0.0 0.0 0.00 0.00 0.00 83 1009.3
20260508213012 52 10 0.0 0.0 0.00 0.00 0.00 82 1009.4
20260508211611 52 79 0.0 0.0 0.00 0.00 0.00 81 1009.3
20260508210012 53 53 0.0 0.0 0.00 0.00 0.00 81 1009.0
20260508204511 53 103 0.0 0.0 0.00 0.00 0.00 80 1009.0
20260508203010 54 103 0.0 0.0 0.00 0.00 0.00 80 1009.0
20260508201510 54 103 0.0 0.0 0.00 0.00 0.00 79 1008.7
20260508200011 55 104 0.0 2.0 0.00 0.00 0.00 76 1008.6
20260508194509 56 84 0.0 3.0 0.00 0.00 0.00 74 1008.4